date,batt_volt,AirTemp_C,Solar_kW,RH,Manual_BP,StationID,WS_ms,PTemp,WS_15min_max,Prog_Sig,Solar_Raw,Bar_mbar,Solar_MJ,Max_WS_2min,Pressure_Raw,Rain_mm,WD_15min_ave,Max_AirTemp_1min,WindDir,WS_15min_med,WS_15min_ave,Elevation_Correction
2023-10-01T00:05:39Z,13.32003,12.05007,0.0,100.1328,0,1156,0.0392,12.02351,0.0392,43690,0.0,1021.997,0.0,0.039,1020.196,0,107.710128192,12.12,105.8831,0.0392,0.0392,1.80078
2023-10-01T00:20:40Z,13.32015,11.81414,0.0,100.1017,0,1156,0.0392,11.90828,0.0392,43690,0.0,1021.997,0.0,0.039,1020.196,0,109.886437338,11.78,108.7992,0.0392,0.0392,1.80078
2023-10-01T00:35:41Z,13.32015,11.78025,0.0,100.1017,0,1156,0.0392,11.77047,0.0392,43690,0.0,1021.997,0.0,0.039,1020.196,0,117.58214994,11.92,110.9179,0.0392,0.0392,1.80078
2023-10-01T00:50:42Z,13.32568,11.40725,0.0,100.1017,0,1156,0.0392,11.6801,0.0392,43690,0.0,1021.997,0.0,0.039,1020.196,0,104.120412422,11.54,101.4079,0.0392,0.0392,1.80078
2023-10-01T01:05:43Z,13.3312,11.16988,0.0,100.1017,0,1156,0.0392,11.49485,0.0392,43690,0.0,1021.679,0.0,0.039,1019.878,0,103.806196543,11.17,107.764,0.0392,0.0392,1.80078
2023-10-01T01:20:39Z,13.3312,11.10206,0.0,100.1017,0,1156,0.0392,11.31184,0.0392,43690,0.0,1021.679,0.0,0.039,1019.878,0,109.818850211,11.17,109.4974,0.0392,0.0392,1.80078
2023-10-01T01:35:40Z,13.33672,11.54289,0.0,100.1017,0,1156,0.0392,11.19888,0.0392,43690,0.0,1021.679,0.0,0.039,1019.878,0,108.376781528,11.85,106.7528,0.0392,0.0392,1.80078
2023-10-01T01:50:40Z,13.3312,11.37334,0.0,100.1356,0,1156,0.0392,11.17629,0.0392,43690,0.0,1021.679,0.0,0.039,1019.878,0,103.332221311,11.44,102.9488,0.0392,0.0392,1.80078
2023-10-01T02:05:40Z,13.33672,11.40725,0.0,100.1017,0,1156,0.0392,11.03847,0.0392,43690,0.0,1021.597,0.0,0.039,1019.796,0,106.226132203,11.54,107.0417,0.0392,0.0392,1.80078
2023-10-01T02:20:41Z,13.34224,11.03424,0.0,100.1017,0,1156,0.0392,10.92551,0.0392,43690,0.0,1021.597,0.0,0.039,1019.796,0,100.931450634,11.17,99.00032,0.0392,0.0392,1.80078
2023-10-01T02:35:41Z,13.34224,10.59341,0.0,100.1017,0,1156,0.0392,10.7877,0.0392,43690,0.0,1021.597,0.0,0.039,1019.796,0,102.485331929,10.73,106.2713,0.0392,0.0392,1.80078
2023-10-01T02:50:41Z,13.34777,10.69601,0.0,100.1034,0,1156,0.0392,10.60696,0.0392,43690,0.0,1021.597,0.0,0.039,1019.796,0,103.800847073,10.8,97.72595,0.0392,0.0392,1.80078
2023-10-01T03:05:41Z,13.35333,11.13926,0.0,100.1082,0,1156,0.0392,10.4714,0.0392,43690,0.0,1021.28,0.0,0.039,1019.479,0,98.4230667864,11.14,102.9795,0.0392,0.0392,1.80078
2023-10-01T03:20:42Z,13.35497,10.9037,0.0,100.0778,0,1156,0.0392,10.49399,0.0392,43690,0.0,1021.28,0.0,0.039,1019.479,0,100.79420508,11.14,98.98615,0.0392,0.0392,1.80078
2023-10-01T03:35:42Z,13.35444,10.93638,0.0,100.1093,0,1156,0.0392,10.42622,0.0392,43690,0.0,1021.28,0.0,0.039,1019.479,0,100.740338294,11.0,105.0514,0.0392,0.0392,1.80078
2023-10-01T03:50:42Z,13.35472,10.2926,0.0,100.0765,0,1156,0.0392,10.35844,0.0392,43690,0.0,1021.28,0.0,0.039,1019.479,0,101.442098981,10.33,102.8855,0.0392,0.0392,1.80078
2023-10-01T04:05:42Z,13.35545,10.22746,0.0,100.0819,0,1156,0.0392,10.22288,0.0392,43690,0.0,1021.273,0.0,0.039,1019.472,0,100.849271014,10.33,97.13603,0.0392,0.0392,1.80078
2023-10-01T04:20:43Z,13.35556,10.43239,0.0,100.1186,0,1156,0.0392,10.15511,0.0392,43690,0.0,1021.273,0.0,0.039,1019.472,0,99.9795892165,10.81,85.62855,0.0392,0.0392,1.80078
2023-10-01T04:35:44Z,13.36108,10.33067,0.0,100.1187,0,1156,0.0392,10.10992,0.0392,43690,0.0,1021.273,0.0,0.039,1019.472,0,93.5059829709,10.6,101.5696,0.0392,0.0392,1.80078
2023-10-01T04:50:43Z,13.3666,10.02543,0.0,100.1187,0,1156,0.0392,9.99696,0.0392,43690,0.0,1021.273,0.0,0.039,1019.472,0,98.2857995919,9.99,100.8472,0.0392,0.0392,1.80078
2023-10-01T05:05:43Z,13.36685,9.689129,0.0,100.1244,0,1156,0.0392,9.90659,0.0392,43690,0.0,1020.963,0.0,0.039,1019.162,0,99.1792118703,9.929999,92.42449,0.0392,0.0392,1.80078
2023-10-01T05:20:43Z,13.36833,10.47119,0.0,100.1283,0,1156,0.0392,9.793629,0.0392,43690,0.0,1020.963,0.0,0.039,1019.162,0,101.319579623,10.64,104.5897,0.0392,0.0392,1.80078
2023-10-01T05:35:48Z,13.36833,10.20033,0.0,100.1293,0,1156,0.0392,9.793629,0.0392,43690,0.0,1020.963,0.0,0.039,1019.162,0,104.134971208,10.4,100.304,0.0392,0.0392,1.80078
2023-10-01T05:50:46Z,13.3734,10.23594,0.0,100.0988,0,1156,0.0392,9.750698,0.0392,43690,0.0,1020.963,0.0,0.039,1019.162,0,103.13990985,10.41,103.7995,0.0392,0.0392,1.80078
2023-10-01T06:05:44Z,13.3736,10.3384,0.0,100.1001,0,1156,0.0392,9.793629,0.0392,43690,0.0,1020.534,0.0,0.039,1018.733,0,103.674363906,10.37,105.1014,0.0392,0.0392,1.80078
2023-10-01T06:20:49Z,13.37411,10.43812,0.0,100.13,0,1156,0.0392,9.771038,0.0392,43690,0.0,1020.534,0.0,0.039,1018.733,0,101.693283767,10.61,103.291,0.0392,0.0392,1.80078
2023-10-01T06:35:47Z,13.36791,10.06477,0.0,100.0956,0,1156,0.0392,9.816219,0.0392,43690,0.0,1020.534,0.0,0.039,1018.733,0,102.225045585,10.3,102.7366,0.0392,0.0392,1.80078
2023-10-01T06:50:46Z,13.37371,10.30252,0.0,100.0962,0,1156,0.0392,9.793629,0.0392,43690,0.0,1020.534,0.0,0.039,1018.733,0,96.7124276479,10.2,102.6168,0.0392,0.0392,1.80078
2023-10-01T07:05:45Z,13.37403,11.11705,0.0,100.1311,0,1156,0.0392,9.83881,0.0392,43690,0.0,1021.183,0.0,0.039,1019.382,0,102.353350587,11.25,97.58439,0.0392,0.0392,1.80078
2023-10-01T07:20:50Z,13.35011,12.0616,0.0,100.1211,0,1156,0.0392,10.29066,0.0392,43690,0.0,1021.183,0.0,0.039,1019.382,0,102.73870713,12.16,104.8951,0.0392,0.0392,1.80078
2023-10-01T07:35:49Z,13.33175,12.35864,0.0,100.1054,0,1156,0.0392,10.9481,0.0392,43690,0.0,1021.183,0.0,0.039,1019.382,0,116.531996034,12.39,107.1419,0.0392,0.0392,1.80078
2023-10-01T07:50:47Z,13.31465,12.45852,0.0,100.1018,0,1156,0.0392,11.58748,0.0392,43690,0.0,1021.183,0.0,0.039,1019.382,0,93.4008619658,12.53,102.2507,0.0392,0.0392,1.80078
2023-10-01T08:05:46Z,13.30359,12.5263,0.0,100.1357,0,1156,0.0392,12.11614,0.0392,43690,0.0,1020.784,0.0,0.039,1018.983,0,105.928079686,12.53,95.14819,0.0392,0.0392,1.80078
2023-10-01T08:20:46Z,13.29561,12.34917,0.0,100.0873,0,1156,0.0392,12.46406,0.0392,43690,0.0,1020.784,0.0,0.039,1018.983,0,103.89238524,12.42,125.0806,0.0392,0.0392,1.80078
2023-10-01T08:35:47Z,13.29365,12.37355,0.0,100.103,0,1156,0.0392,12.71936,0.0392,43690,0.0,1020.784,0.0,0.039,1018.983,0,111.55816477,12.37,87.19873,0.0392,0.0392,1.80078
2023-10-01T08:50:47Z,13.29356,12.37291,0.0,100.1018,0,1156,0.0392,12.85943,0.0392,43690,0.0,1020.784,0.0,0.039,1018.983,0,102.604223343,12.41,91.2892,0.0392,0.0392,1.80078
2023-10-01T09:05:47Z,13.28804,12.30511,0.0,100.1017,0,1156,0.0392,12.95432,0.0392,43690,0.0,1020.608,0.0,0.039,1018.807,0,105.809018007,12.44,86.54782,0.0392,0.0392,1.80078
2023-10-01T09:20:48Z,13.29356,12.27121,0.0,100.0678,0,1156,0.0392,12.97691,0.0392,43690,0.0,1020.608,0.0,0.039,1018.807,0,105.610705553,12.27,122.7939,0.0392,0.0392,1.80078
2023-10-01T09:35:47Z,13.29356,12.27121,0.0,100.1017,0,1156,0.0392,12.95432,0.0392,43690,0.0,1020.608,0.0,0.039,1018.807,0,108.362916449,12.34,112.4929,0.0392,0.0392,1.80078
2023-10-01T09:50:52Z,13.28804,12.4068,0.0,100.1017,0,1156,0.0392,12.95432,0.0392,43690,0.0,1020.608,0.0,0.039,1018.807,0,108.31133309,12.51,94.39393,0.0392,0.0392,1.80078
2023-10-01T10:05:52Z,13.28804,12.5424,0.0004823718,100.1017,0,1156,0.0392,13.00177,0.0392,43690,0.03376602,1021.015,2.411859e-06,0.039,1019.214,0,111.203885447,12.58,87.51054,0.0392,0.0392,1.80078
2023-10-01T10:20:52Z,13.28804,12.61019,0.003376596,100.1356,0,1156,0.0392,13.11699,0.0392,43690,0.2363617,1021.015,1.688298e-05,0.039,1019.214,0,107.700258685,12.61,90.8319,0.0392,0.0392,1.80078
2023-10-01T10:35:51Z,13.28804,12.4746,0.007235587,100.1017,0,1156,0.0392,13.18702,0.0392,43690,0.5064911,1021.015,3.617794e-05,0.039,1019.214,0,102.985394109,12.51,114.7794,0.0392,0.0392,1.80078
2023-10-01T10:50:51Z,13.28804,12.33901,0.01543529,100.1356,0,1156,0.0392,13.23446,0.0392,43690,1.08047,1021.015,7.717644e-05,0.039,1019.214,0,104.607412066,12.47,113.3353,0.0392,0.0392,1.80078
2023-10-01T11:05:52Z,13.28252,12.4407,0.02218821,100.1017,0,1156,0.0392,13.28191,0.0392,43690,1.553175,1021.177,0.0001109411,0.039,1019.377,0,102.759982601,12.47,86.81257,0.0392,0.0392,1.80078
2023-10-01T11:20:53Z,13.28804,12.30511,0.04292936,100.1017,0,1156,0.0392,13.32936,0.0392,43690,3.005055,1021.177,0.0002146468,0.039,1019.377,0,109.022349321,12.37,109.0272,0.0392,0.0392,1.80078
2023-10-01T11:35:54Z,13.28804,12.33901,0.05354112,100.1017,0,1156,0.0392,13.32936,0.0392,43690,3.747878,1021.177,0.0002677056,0.039,1019.377,0,102.522057522,12.34,111.5061,0.0392,0.0392,1.80078
2023-10-01T11:50:54Z,13.28252,12.4068,0.06801262,100.1017,0,1156,0.0392,13.42424,0.0392,43690,4.760883,1021.177,0.0003400631,0.039,1019.377,0,90.1915737368,12.44,105.6095,0.0392,0.0392,1.80078
2023-10-01T12:05:55Z,13.277,12.23731,0.08971757,100.1017,0,1156,0.0392,13.56432,0.0392,43690,6.28023,1020.852,0.0004485878,0.039,1019.051,0,110.181965177,12.44,126.4763,0.0392,0.0392,1.80078
2023-10-01T12:20:56Z,13.27148,12.30511,0.101294,100.1017,0,1156,0.0392,13.70665,0.0392,43690,7.090581,1020.852,0.00050647,0.039,1019.051,0,96.1898467215,12.44,107.1017,0.0392,0.0392,1.80078
2023-10-01T12:35:56Z,13.26596,12.27121,0.1278234,100.1356,0,1156,0.0392,13.91902,0.0392,43690,8.947637,1020.852,0.0006391169,0.039,1019.051,0,111.393416808,12.31,119.1597,0.0392,0.0392,1.80078
2023-10-01T12:50:56Z,13.26596,12.67799,0.1427763,100.0678,0,1156,0.0392,14.13365,0.0392,43690,9.994342,1020.852,0.0007138815,0.039,1019.051,0,95.7308817123,12.75,82.5285,0.0392,0.0392,1.80078
2023-10-01T13:05:56Z,13.26044,12.61019,0.192941,100.1695,0,1156,0.0392,14.39572,0.0392,43690,13.50587,1020.77,0.0009647048,0.039,1018.97,0,107.047749323,12.78,93.57562,0.0392,0.0392,1.80078
2023-10-01T13:20:56Z,13.2494,13.05087,0.1746116,100.1017,0,1156,0.0392,14.73235,0.0392,43690,12.22281,1020.77,0.0008730578,0.039,1018.97,0,105.801809178,13.12,96.41562,0.0392,0.0392,1.80078
2023-10-01T13:35:56Z,13.24229,13.04447,0.1977645,100.1236,0,1156,0.0392,15.06898,0.0392,43690,13.84351,1020.77,0.0009888224,0.039,1018.97,0,104.447029212,13.25,110.2654,0.0392,0.0392,1.80078
2023-10-01T13:50:57Z,13.23612,13.07574,0.2290865,100.1525,0,1156,0.0392,15.38527,0.0392,43690,16.03606,1020.77,0.001145433,0.039,1018.97,0,99.8158150376,13.08,106.7948,0.0392,0.0392,1.80078
2023-10-01T14:05:56Z,13.22991,12.9711,0.2546058,100.0791,0,1156,0.0392,15.77386,0.0392,43690,17.8224,1021.083,0.001273029,0.039,1019.283,0,111.119854627,13.07,83.71296,0.0392,0.0392,1.80078
2023-10-01T14:20:55Z,13.21738,13.54162,0.2275937,100.1025,0,1156,0.0392,16.16697,0.0392,43690,15.93156,1021.083,0.001137968,0.039,1019.283,0,116.548973672,13.61,119.2165,0.0392,0.0392,1.80078
2023-10-01T14:36:00Z,13.20628,13.71063,0.315352,100.1017,0,1156,0.0392,16.58719,0.0392,43690,22.07464,1021.083,0.00157676,0.039,1019.283,0,119.44860418,13.95,113.9224,0.0392,0.0392,1.80078
2023-10-01T14:50:58Z,13.19524,13.47342,0.2922069,100.1356,0,1156,0.0392,17.03679,0.0392,43690,20.45448,1021.083,0.001461034,0.039,1019.283,0,98.2354603907,13.61,73.98342,0.0392,0.0392,1.80078
2023-10-01T15:05:58Z,13.18863,13.87458,0.3568203,100.1254,0,1156,0.0392,17.41182,0.0392,43690,24.97742,1020.168,0.001784101,0.039,1018.367,0,98.1080583393,13.88,100.8237,0.0392,0.0392,1.80078
2023-10-01T15:20:58Z,13.17987,13.9982,0.3481181,100.1372,0,1156,0.0392,17.74167,0.0392,43690,24.36827,1020.168,0.00174059,0.039,1018.367,0,109.777333464,14.03,111.216,0.0392,0.0390847058824,1.80078
2023-10-01T15:35:57Z,13.17446,14.13412,0.3408119,100.1041,0,1156,0.0392,18.07152,0.0392,43690,23.85683,1020.168,0.00170406,0.039,1018.367,0,107.020760717,14.27,152.3699,0.0392,0.0392,1.80078
2023-10-01T15:50:57Z,13.16871,13.59099,0.4159912,100.102,0,1156,0.0392,18.35393,0.0392,43690,29.11938,1020.168,0.002079956,0.039,1018.367,0,159.402671839,13.56,156.7442,0.0392,0.0392,1.80078
2023-10-01T16:05:58Z,13.1687,14.09894,0.5138814,100.1355,0,1156,0.0392,18.45559,0.0392,43690,35.9717,1020.419,0.002569407,0.039,1018.618,0,155.544562746,14.07,156.8158,0.0392,0.0392,1.80078
2023-10-01T16:20:58Z,13.16319,14.30219,0.5321785,100.1017,0,1156,0.0392,18.63633,0.0392,43690,37.25249,1020.419,0.002660892,0.039,1018.618,0,154.772781282,14.2,155.9259,0.0392,0.0392,1.80078
2023-10-01T16:35:58Z,13.15215,14.70869,0.4641922,100.1355,0,1156,0.0392,18.99781,0.0392,43690,32.49345,1020.419,0.002320961,0.039,1018.618,0,161.894787034,14.78,160.664,0.0392,0.0392,1.80078
2023-10-01T16:50:59Z,13.14664,13.62468,0.4386444,100.1355,0,1156,0.0392,19.25989,0.0392,43690,30.70511,1020.419,0.002193222,0.039,1018.618,0,154.397549863,13.56,150.2257,0.0392,0.0392,1.80078
2023-10-01T17:06:01Z,13.15215,14.94582,0.4984157,100.1355,0,1156,0.0392,19.23278,0.0392,43690,34.8891,1019.199,0.002492079,0.039,1017.399,0,161.261223338,14.95,163.8629,0.0392,0.0392,1.80078
2023-10-01T17:21:02Z,13.14112,15.18219,0.4106868,100.1342,0,1156,0.0392,19.54681,0.0392,43690,28.74808,1019.199,0.002053434,0.039,1017.399,0,169.46461927,15.25,167.4923,0.0392,0.0392,1.80078
2023-10-01T17:36:02Z,13.12827,15.24244,0.3379008,100.1206,0,1156,0.0392,20.04837,0.0392,43690,23.65306,1019.199,0.001689504,0.039,1017.399,0,170.295807538,15.34,157.0088,0.0392,0.0392,1.80078
2023-10-01T17:51:03Z,13.1262,14.65773,0.3258501,100.1042,0,1156,0.0392,20.39629,0.0392,43690,22.80951,1019.199,0.001629251,0.039,1017.399,0,167.474608321,14.62,166.2641,0.0392,0.0392,1.80078
2023-10-01T18:05:58Z,13.13117,14.758,0.2453517,100.1018,0,1156,0.0392,20.4234,0.0392,43690,17.17462,1018.865,0.001226758,0.039,1017.065,0,187.464781544,14.83,168.0153,0.0392,0.0392,1.80078
2023-10-01T18:21:00Z,13.13717,14.69203,0.3581459,100.1389,0,1156,0.0392,20.20877,0.0392,43690,25.07021,1018.865,0.001790729,0.039,1017.065,0,188.813870753,14.66,192.0408,0.0392,0.0392,1.80078
2023-10-01T18:36:00Z,13.13872,14.90158,0.2805396,100.1166,0,1156,0.0392,19.89022,0.0392,43690,19.63777,1018.865,0.001402698,0.039,1017.065,0,188.206787925,14.94,204.2308,0.0392,0.0392,1.80078
2023-10-01T18:50:59Z,13.15146,15.38148,0.3272962,100.0931,0,1156,0.0392,19.54681,0.0392,43690,22.91073,1018.865,0.001636481,0.039,1017.065,0,186.082821945,15.79,188.7882,0.0392,0.0392,1.80078
2023-10-01T19:05:59Z,13.1521,15.96103,0.3137994,100.1337,0,1156,0.0392,19.39093,0.0392,43690,21.96596,1019.022,0.001568997,0.039,1017.221,0,181.63654846,16.1,196.1844,0.0392,0.0392,1.80078
2023-10-01T19:21:00Z,13.15214,16.23304,0.2843958,100.1355,0,1156,0.0392,19.36381,0.0392,43690,19.90771,1019.022,0.001421979,0.039,1017.221,0,185.68650728,16.3,172.0402,0.0392,0.0392,1.80078
2023-10-01T19:36:00Z,13.15214,16.06367,0.2386033,100.1355,0,1156,0.0392,19.28474,0.0392,43690,16.70223,1019.022,0.001193016,0.039,1017.221,0,177.918597435,16.3,169.8035,0.0392,0.0392,1.80078
2023-10-01T19:51:00Z,13.16318,15.31841,0.1860624,100.1016,0,1156,0.0392,18.94585,0.0392,43690,13.02436,1019.022,0.0009303118,0.039,1017.221,0,171.701454809,15.45,180.4102,0.0392,0.0392,1.80078
2023-10-01T20:06:01Z,13.17421,15.42004,0.1749757,100.1693,0,1156,0.0392,18.32682,0.0392,43690,12.2483,1017.573,0.0008748786,0.039,1015.772,0,186.964046242,15.56,185.7015,0.0392,0.0392,1.80078
2023-10-01T20:21:02Z,13.18553,15.4884,0.155216,100.0688,0,1156,0.0392,17.76652,0.0392,43690,10.86512,1017.573,0.0007760798,0.039,1015.772,0,186.272993644,15.76,183.3946,0.0392,0.0392,1.80078
2023-10-01T20:36:02Z,13.1911,15.35397,0.1113806,100.1385,0,1156,0.0392,17.26045,0.0392,43690,7.796645,1017.573,0.0005569032,0.039,1015.772,0,184.791610206,15.39,189.0744,0.0392,0.0392,1.80078
2023-10-01T20:51:02Z,13.20565,15.30097,0.08004335,100.1314,0,1156,0.0392,16.81086,0.0392,43690,5.603034,1017.573,0.0004002168,0.039,1015.772,0,194.896742947,15.44,226.0308,0.0392,0.0392,1.80078
2023-10-01T21:06:02Z,13.21178,14.93047,0.06027367,100.1016,0,1156,0.0392,16.38838,0.0392,43690,4.219157,1017.502,0.0003013683,0.039,1015.701,0,196.385015675,15.03,195.6768,0.0392,0.0392,1.80078
2023-10-01T21:21:03Z,13.22283,14.45612,0.03953952,100.1355,0,1156,0.0392,15.84842,0.0392,43690,2.767767,1017.502,0.0001976976,0.039,1015.701,0,186.339556071,14.66,190.4561,0.0392,0.0392,1.80078
2023-10-01T21:36:03Z,13.24052,14.05601,0.02411112,100.1138,0,1156,0.0196,15.21357,0.0392,43690,1.687778,1017.502,0.0001205556,0.039,1015.701,0,205.410765325,14.22,28.97131,0.0392,0.0389694117647,1.80078
2023-10-01T21:51:03Z,13.25764,13.48119,0.01061161,100.1163,0,1156,0.0392,14.66005,0.0392,43690,0.742813,1017.502,5.305806e-05,0.039,1015.701,0,57.4119132475,13.65,97.76857,0.0392,0.0387388235294,1.80078
2023-10-01T22:06:04Z,13.27134,13.28758,0.001929409,100.1006,0,1156,0.0196,14.0862,0.0392,43690,0.1350586,1018.227,9.647042e-06,0.039,1016.426,0,68.5411298964,13.52,33.93524,0.0392,0.0382776470588,1.80078
2023-10-01T22:21:04Z,13.28252,13.35593,0.0,100.1017,0,1156,0.0392,13.58917,0.0392,43690,0.0,1018.227,0.0,0.039,1016.426,0,275.668958358,13.46,236.3698,0.0392,0.0388541176471,1.80078
2023-10-01T22:36:04Z,13.29356,12.47458,0.0,100.1356,0,1156,0.0392,13.11699,0.0392,43690,0.0,1018.227,0.0,0.039,1016.426,0,220.348891711,12.64,218.2949,0.0392,0.0392,1.80078
2023-10-01T22:51:05Z,13.29908,13.15254,0.0,100.0678,0,1156,0.0392,12.69677,0.0392,43690,0.0,1018.227,0.0,0.039,1016.426,0,238.555004072,13.19,80.55492,0.0392,0.0390847058824,1.80078
2023-10-01T23:06:05Z,13.29908,12.61017,0.0,100.0678,0,1156,0.0392,12.55669,0.0392,43690,0.0,1018.33,0.0,0.039,1016.529,0,250.730857339,12.81,276.3224,0.0392,0.0392,1.80078
2023-10-01T23:21:05Z,13.30003,13.3241,0.0,100.1395,0,1156,0.0392,12.51151,0.0392,43690,0.0,1018.33,0.0,0.039,1016.529,0,281.65654986,13.36,251.8552,0.0392,0.0392,1.80078
2023-10-01T23:36:05Z,13.29966,12.91749,0.0,100.1059,0,1156,0.0392,12.46406,0.0392,43690,0.0,1018.33,0.0,0.039,1016.529,0,249.209001222,12.88,261.0985,0.0392,0.0392,1.80078
2023-10-01T23:51:05Z,13.30572,13.12286,0.0,100.1096,0,1156,0.0392,12.37143,0.0392,43690,0.0,1018.33,0.0,0.039,1016.529,0,264.797472321,13.02,36.53781,0.0392,0.0392,1.80078
2023-10-02T00:06:06Z,13.30025,12.78698,0.0,100.1156,0,1156,0.0392,12.39402,0.0392,43690,0.0,1018.723,0.0,0.039,1016.923,0,306.018930929,12.89,32.54417,0.0392,0.0392,1.80078
2023-10-02T00:21:06Z,13.29976,13.02221,0.0,100.1116,0,1156,0.0392,12.39402,0.0392,43690,0.0,1018.723,0.0,0.039,1016.923,0,31.7518022514,13.09,40.72675,0.0392,0.0392,1.80078
2023-10-02T00:36:04Z,13.30137,12.8882,0.0,100.0808,0,1156,0.0392,12.41887,0.0392,43690,0.0,1018.723,0.0,0.039,1016.923,0,51.468519916,12.96,261.8193,0.0392,0.0390840236686,1.80078
2023-10-02T00:51:08Z,13.29402,12.98631,0.0,100.1078,0,1156,0.0392,12.48665,0.0392,43690,0.0,1018.723,0.0,0.039,1016.923,0,35.5862449679,13.05,35.79101,0.0392,0.0388541176471,1.80078
2023-10-02T01:06:09Z,13.29413,13.01782,0.0,100.1033,0,1156,0.0392,12.5341,0.0392,43690,0.0,1018.836,0.0,0.039,1017.035,0,25.8995725139,13.12,50.97643,0.0392,0.0386235294118,1.80078
2023-10-02T01:21:09Z,13.2996,12.17038,0.0,100.1034,0,1156,0.0392,12.51151,0.0392,43690,0.0,1018.836,0.0,0.039,1017.035,0,286.367158838,12.31,241.1874,0.0392,0.0390847058824,1.80078
2023-10-02T01:36:09Z,13.30572,12.20757,0.0,100.0758,0,1156,0.0392,12.37143,0.0392,43690,0.0,1018.836,0.0,0.039,1017.035,0,307.847831377,12.34,33.26436,0.0392,0.0392,1.80078
2023-10-02T01:51:10Z,13.30738,12.82428,0.0,100.122,0,1156,0.0392,12.23362,0.0392,43690,0.0,1018.836,0.0,0.039,1017.035,0,336.848618772,12.86,26.11886,0.0392,0.0386235294118,1.80078
2023-10-02T02:06:11Z,13.30785,12.55754,0.0,100.0967,0,1156,0.0392,12.23362,0.0392,43690,0.0,1018.363,0.0,0.039,1016.562,0,237.425054657,12.56,237.7863,0.0392,0.0367788235294,1.80078
2023-10-02T02:21:11Z,13.30247,13.03107,0.0,100.0944,0,1156,0.0392,12.23362,0.0392,43690,0.0,1018.363,0.0,0.039,1016.562,0,228.953724048,12.96,35.02796,0.0392,0.03724,1.80078
2023-10-02T02:36:11Z,13.30786,12.89587,0.0,100.1292,0,1156,0.0392,12.25621,0.0392,43690,0.0,1018.363,0.0,0.039,1016.562,0,63.1181866905,12.86,95.98465,0.0392,0.0388541176471,1.80078
2023-10-02T02:51:11Z,13.30663,12.72345,0.0,100.1237,0,1156,0.0392,12.37143,0.0392,43690,0.0,1018.363,0.0,0.039,1016.562,0,322.43951777,12.83,45.85923,0.0392,0.0392,1.80078
2023-10-02T03:06:11Z,13.30007,11.93736,0.0,100.0777,0,1156,0.0392,12.39402,0.0392,43690,0.0,1019.29,0.0,0.039,1017.49,0,46.0321954352,12.07,59.14045,0.0392,0.0392,1.80078
2023-10-02T03:21:11Z,13.30654,12.37914,0.0,100.0798,0,1156,0.0392,12.37143,0.0392,43690,0.0,1019.29,0.0,0.039,1017.49,0,80.946244503,12.52,86.9914,0.0392,0.0392,1.80078
2023-10-02T03:36:11Z,13.29998,13.43124,0.0,100.1158,0,1156,0.0392,12.46406,0.2156,43690,0.0,1019.29,0.0,0.039,1017.49,0,85.2046197345,13.47,81.89017,0.0392,0.0402376470588,1.80078
2023-10-02T03:51:11Z,13.29449,13.46008,0.0,100.1063,0,1156,1.6464,12.60414,5.194,43690,0.0,1019.29,0.0,0.784,1017.49,0,82.1159146079,13.56,83.78384,0.0392,0.436503528824,1.80078
2023-10-02T04:06:10Z,13.28807,13.52564,0.0,100.1021,0,1156,0.0392,12.74421,5.684,43690,0.0,1018.5,0.0,3.979,1016.699,0,84.8364923975,13.56,92.80578,0.2156,1.07846117588,1.80078
2023-10-02T04:21:10Z,13.28804,13.55935,0.0,100.1017,0,1156,0.0392,12.88428,5.8212,43690,0.0,1018.5,0.0,1.646,1016.699,0,90.1257262365,13.63,98.6058,0.0392,0.615324704706,1.80078
2023-10-02T04:36:09Z,13.28804,13.59324,0.0,100.1017,0,1156,0.0392,12.92947,2.5676,43690,0.0,1018.5,0.0,0.039,1016.699,0,97.4116849322,13.69,99.92952,0.0392,0.0700988235294,1.80078
2023-10-02T04:51:09Z,13.29356,13.35596,0.0,100.1356,0,1156,0.0392,12.90687,0.0392,43690,0.0,1018.5,0.0,0.039,1016.699,0,104.82551475,13.46,89.79698,0.0392,0.0392,1.80078
2023-10-02T05:06:15Z,13.29356,12.71189,0.0,100.0678,0,1156,0.0392,12.7668,0.0392,43690,0.0,1018.899,0.0,0.039,1017.098,0,106.60311171,12.75,100.1943,0.0392,0.0392,1.80078
2023-10-02T05:21:13Z,13.29909,12.16951,0.0,100.0678,0,1156,0.0392,12.5341,0.0392,43690,0.0,1018.899,0.0,0.039,1017.098,0,97.8508277791,12.41,102.6011,0.0392,0.0392,1.80078
2023-10-02T05:36:12Z,13.30656,11.7008,0.0,100.0792,0,1156,0.0392,12.23362,0.0392,43690,0.0,1018.899,0.0,0.039,1017.098,0,93.7786423631,11.84,87.78524,0.0392,0.0392,1.80078
2023-10-02T05:51:12Z,13.32,12.11828,0.0,100.0997,0,1156,0.0392,11.95573,0.0392,43690,0.0,1018.899,0.0,0.039,1017.098,0,93.8231975349,12.05,96.56664,0.0392,0.0392,1.80078
2023-10-02T06:06:11Z,13.32015,12.01761,0.0,100.1017,0,1156,0.0392,11.81791,0.0392,43690,0.0,1018.829,0.0,0.039,1017.028,0,92.7689424233,12.19,96.92976,0.0392,0.0392,1.80078
2023-10-02T06:21:11Z,13.32015,11.78025,0.0,100.1017,0,1156,0.0392,11.6801,0.0392,43690,0.0,1018.829,0.0,0.039,1017.028,0,92.4682120011,11.92,86.45675,0.0392,0.0392,1.80078
2023-10-02T06:36:11Z,13.3312,10.79687,0.0,100.1017,0,1156,0.0392,11.44966,0.0392,43690,0.0,1018.829,0.0,0.039,1017.028,0,85.1644092753,10.93,96.83348,0.0392,0.0392,1.80078
2023-10-02T06:51:16Z,13.33672,10.83078,0.0,100.1356,0,1156,0.0392,11.10625,0.0392,43690,0.0,1018.829,0.0,0.039,1017.028,0,94.8434637326,10.76,101.0227,0.0392,0.0392,1.80078
2023-10-02T07:06:16Z,13.34224,10.5595,0.0,100.1017,0,1156,0.0392,10.81029,0.0392,43690,0.0,1018.993,0.0,0.039,1017.192,0,91.943291192,10.63,95.79822,0.0392,0.0392,1.80078
2023-10-02T07:21:15Z,13.34777,10.49168,0.0,100.1017,0,1156,0.0392,10.53918,0.0392,43690,0.0,1018.993,0.0,0.039,1017.192,0,90.8441460908,10.46,75.62257,0.0392,0.0392,1.80078
2023-10-02T07:36:14Z,13.35377,10.69791,0.0,100.1072,0,1156,0.0392,10.33585,0.0392,43690,0.0,1018.993,0.0,0.039,1017.192,0,84.0091468315,10.87,73.48382,0.0392,0.0392,1.80078
2023-10-02T07:51:12Z,13.35492,12.16093,0.0,100.1164,0,1156,0.0392,10.38103,0.6664,43690,0.0,1018.993,0.0,0.039,1017.192,0,82.9829473461,12.3,89.16636,0.0392,0.04508,1.80078
2023-10-02T08:06:17Z,13.34332,12.15477,0.0,100.1046,0,1156,0.0392,10.67473,0.0392,43690,0.0,1019.283,0.0,0.039,1017.482,0,86.3371572784,12.22,89.97443,0.0392,0.0392,1.80078
2023-10-02T08:21:15Z,13.33123,12.18723,0.0,100.1018,0,1156,0.0392,10.92551,0.1372,43690,0.0,1019.283,0.0,0.039,1017.482,0,85.0508943606,12.32,86.76982,0.0392,0.0397764705882,1.80078
2023-10-02T08:36:13Z,13.3312,12.05156,0.0,100.1018,0,1156,0.0392,11.10625,0.0392,43690,0.0,1019.283,0.0,0.039,1017.482,0,86.1326369416,11.98,83.49543,0.0392,0.0392,1.80078